Weather History for Honolulu, HI

Change the Weather History Date:

Wednesday, October 29, 2014

  Actual Average Record
Temperature  
Mean Temperature 82 °F 79 °F  
Max Temperature 88 °F 86 °F 90 °F (1968)
Min Temperature 76 °F 73 °F 65 °F (1910)
Degree Days  
Heating Degree Days 0 0  
Month to date heating degree days 0 0  
Since 1 July heating degree days 0 0  
Cooling Degree Days 17 14  
Month to date cooling degree days 485 439  
Year to date cooling degree days 4188 3918  
Growing Degree Days 30 (Base 50)    
Moisture  
Dew Point 69 °F    
Average Humidity 65    
Maximum Humidity 76    
Minimum Humidity 53    
Precipitation  
Precipitation T in 0.08 in 2.56 in (1942)
Month to date precipitation 5.47 1.69  
Year to date precipitation 18.28 11.29  
Snow  
Snow 0.00 in - - ()
Month to date snowfall 0.0  
Since 1 July snowfall 0.0  
Since 1 September snowfall 0.0  
Snow Depth 0.00 in    
Sea Level Pressure  
Sea Level Pressure 30.06 in    
Wind  
Wind Speed 8 mph (NE)    
Max Wind Speed 20 mph    
Max Gust Speed 25 mph    
Visibility 10 miles    
Events Rain    
T = Trace of Precipitation, MM = Missing Value Source: NWS Daily Summary

Daily Weather History Graph

Daily Weather History Graph

Search for Another Location

Airport:

Trip Planner

Search our weather history database for the weather conditions in past years. The results will help you decide how hot, cold, wet, or windy it might be!

Date:

Astronomy

Oct. 29, 2014 Rise Set
Actual Time 6:33 AM HST 5:57 PM HST
Civil Twilight 6:10 AM HST 6:19 PM HST
Nautical Twilight 5:44 AM HST 6:46 PM HST
Astronomical Twilight 5:18 AM HST 7:12 PM HST
Moon 11:52 AM HST (10/29) 11:25 PM HST (10/29)
Length of Visible Light 12h 09m
Length of Day
11h 23m
Waxing Crescent, 37% of the Moon is Illuminated
Oct 29
Waxing Crescent
Oct 30
First Quarter
Nov 6
Full
Nov 14
Last Quarter
Nov 22
New

Hourly Weather History & Observations

Time (HST) Temp. Heat Index Dew Point Humidity Pressure Visibility Wind Dir Wind Speed Gust Speed Precip Events Conditions
12:53 AM 80.1 °F 82.3 °F 66.9 °F 64% 30.05 in 10.0 mi East 3.5 mph - N/A   Scattered Clouds
1:53 AM 78.1 °F - 68.0 °F 71% 30.05 in 10.0 mi Calm Calm - N/A   Scattered Clouds
2:53 AM 77.0 °F - 69.1 °F 76% 30.04 in 10.0 mi Calm Calm - N/A   Mostly Cloudy
3:53 AM 77.0 °F - 69.1 °F 76% 30.04 in 10.0 mi Calm Calm - N/A   Scattered Clouds
4:53 AM 77.0 °F - 68.0 °F 74% 30.04 in 10.0 mi NNE 3.5 mph - N/A   Scattered Clouds
5:53 AM 77.0 °F - 70.0 °F 79% 30.06 in 10.0 mi North 4.6 mph - 0.00 in Rain Rain
6:53 AM 78.1 °F - 69.1 °F 74% 30.07 in 10.0 mi NE 5.8 mph - 0.00 in   Scattered Clouds
7:53 AM 79.0 °F - 69.1 °F 72% 30.08 in 10.0 mi NE 8.1 mph - N/A   Scattered Clouds
8:53 AM 82.0 °F 85.5 °F 69.1 °F 65% 30.09 in 10.0 mi NE 10.4 mph - N/A   Scattered Clouds
9:53 AM 82.0 °F 85.9 °F 70.0 °F 67% 30.09 in 10.0 mi NNE 12.7 mph - N/A   Mostly Cloudy
10:53 AM 84.9 °F 88.8 °F 69.1 °F 59% 30.08 in 10.0 mi NE 15.0 mph 21.9 mph N/A   Scattered Clouds
11:53 AM 84.0 °F 87.8 °F 69.1 °F 61% 30.06 in 10.0 mi NNE 12.7 mph 24.2 mph N/A   Scattered Clouds
12:53 PM 87.1 °F 90.6 °F 68.0 °F 53% 30.04 in 10.0 mi ENE 16.1 mph 23.0 mph N/A   Scattered Clouds
1:53 PM 86.0 °F 90.1 °F 69.1 °F 57% 30.02 in 10.0 mi NE 16.1 mph 25.3 mph N/A   Scattered Clouds
2:53 PM 84.9 °F 88.8 °F 69.1 °F 59% 30.01 in 10.0 mi NNE 13.8 mph 21.9 mph N/A   Scattered Clouds
3:53 PM 84.0 °F 87.8 °F 69.1 °F 61% 30.00 in 10.0 mi ENE 9.2 mph - N/A   Scattered Clouds
4:53 PM 82.9 °F 86.5 °F 69.1 °F 63% 30.01 in 10.0 mi ENE 8.1 mph - N/A   Scattered Clouds
5:53 PM 81.0 °F 83.8 °F 68.0 °F 65% 30.03 in 10.0 mi ENE 13.8 mph - N/A   Scattered Clouds
6:53 PM 80.1 °F 82.9 °F 69.1 °F 69% 30.06 in 10.0 mi NE 12.7 mph - N/A   Scattered Clouds
7:53 PM 79.0 °F - 70.0 °F 74% 30.08 in 10.0 mi ENE 13.8 mph 21.9 mph N/A   Scattered Clouds
8:53 PM 79.0 °F - 69.1 °F 72% 30.09 in 10.0 mi NE 13.8 mph 20.7 mph N/A   Scattered Clouds
9:53 PM 79.0 °F - 69.1 °F 72% 30.09 in 10.0 mi ENE 12.7 mph - N/A   Scattered Clouds
10:53 PM 79.0 °F - 69.1 °F 72% 30.09 in 10.0 mi East 10.4 mph - N/A   Mostly Cloudy
11:53 PM 78.1 °F - 70.0 °F 76% 30.08 in 10.0 mi ENE 12.7 mph - N/A   Scattered Clouds